Location: Newark
(36.7000°N, 45.1333°E)
Time: 13:46:40
(UTC+00:00)

Hubble Space Telescope - Pass Details

Date: 02 February 2020
Orbit: 536 x 540 km, 28.5° (Epoch: 21 February)

Event Time Altitude Azimuth Distance (km) Brightness Sun altitude
Exits shadow 03:29:24 - 247° (WSW) 2,446 3.7 -6.9°
Reaches altitude 10° 03:31:19 10° 237° (WSW) 1,777 3.0 -6.5°
Maximum altitude 03:34:45 26° 180° (S) 1,077 2.5 -5.9°
Drops below altitude 10° 03:38:11 10° 123° (ESE) 1,778 5.0 -5.2°
Sets 03:40:42 0° 110° (ESE) 2,668 7.4 -4.7°
